Date String (YYYY-MM-DD hh:mm:ss) UTC,Instrument flags,Ambient pressure (hPa),Sample flow (lpm),Bypass flow (lpm),Sample temperature (°C),Ambient temperature (°C),ASC tube jacket temperature (°C),LED temperature (°C),Box temperature (°C),Sample RH (%),Span deviation,Mass concentration (μg/m³),Mass concentration (μg/m³),Mass concentration (μg/m³)
DateTimeUTC,F1_M11,P_M11,Q1_M11,Q2_M11,T1_M11,T2_M11,T3_M11,T4_M11,T5_M11,U1_M11,ZSPAN_M11,X0_M11,X2_M11,X1_M11
2021-11-05 01:00:00,,0825.1,4.99,0.00,30.3,29.3,00.0,39.2,32.0,10.9,0000.0,0013.44,0004.42,0003.64
2021-11-05 01:01:00,,0825.1,5.00,0.00,30.3,29.3,00.0,39.2,32.0,10.8,0000.0,0013.44,0004.43,0003.64
2021-11-05 01:02:00,,0825.1,5.00,0.00,30.3,29.4,00.0,39.3,32.0,10.8,0000.0,0013.58,0004.49,0003.66
2021-11-05 01:03:00,,0825.1,5.01,0.00,30.3,29.4,00.0,39.3,32.1,10.8,0000.0,0013.49,0004.56,0003.68
2021-11-05 01:04:00,,0825.1,5.00,0.00,30.3,29.4,00.0,39.3,32.1,10.7,0000.0,0013.60,0004.60,0003.70
2021-11-05 01:05:00,,0825.1,5.00,0.00,30.4,29.4,00.0,39.3,32.1,10.7,0000.0,0013.26,0004.59,0003.71
2021-11-05 01:06:00,,0825.1,4.99,0.00,30.4,29.4,00.0,39.3,32.1,10.7,0000.0,0013.17,0004.64,0003.70
2021-11-05 01:07:00,,0825.1,5.00,0.00,30.4,29.4,00.0,39.3,32.1,10.6,0000.0,0013.50,0004.64,0003.70
2021-11-05 01:08:00,,0825.1,5.00,0.00,30.4,29.4,00.0,39.3,32.1,10.7,0000.0,0011.94,0004.63,0003.69
2021-11-05 01:09:00,,0825.1,4.98,0.00,30.4,29.4,00.0,39.3,32.1,10.7,0000.0,0011.89,0004.62,0003.68
2021-11-05 01:10:00,,0825.1,5.01,0.00,30.4,29.4,00.0,39.3,32.1,10.7,0000.0,0012.16,0004.60,0003.65
2021-11-05 01:11:00,,0825.1,5.01,0.00,30.4,29.4,00.0,39.4,32.1,10.7,0000.0,0012.15,0004.54,0003.63
2021-11-05 01:12:00,,0825.1,5.00,0.00,30.4,29.4,00.0,39.4,32.1,10.9,0000.0,0012.44,0004.46,0003.60
2021-11-05 01:13:00,,0825.1,4.99,0.00,30.4,29.4,00.0,39.4,32.0,11.1,0000.0,0012.77,0004.40,0003.56
2021-11-05 01:14:00,,0825.1,5.00,0.00,30.4,29.4,00.0,39.4,32.1,11.0,0000.0,0012.80,0004.33,0003.53
2021-11-05 01:15:00,,0825.1,5.00,0.00,30.4,29.4,00.0,39.4,32.1,10.9,0000.0,0013.61,0004.28,0003.49
2021-11-05 01:16:00,,0825.1,5.01,0.00,30.4,29.4,00.0,39.4,32.1,11.0,0000.0,0012.97,0004.19,0003.45
2021-11-05 01:17:00,,0825.2,5.01,0.00,30.4,29.4,00.0,39.4,32.1,11.0,0000.0,0012.72,0004.11,0003.42
2021-11-05 01:18:00,,0825.2,5.00,0.00,30.4,29.4,00.0,39.4,32.1,10.8,0000.0,0012.54,0004.04,0003.38
2021-11-05 01:19:00,,0825.2,4.98,0.00,30.4,29.4,00.0,39.4,32.0,10.7,0000.0,0012.39,0004.03,0003.34
2021-11-05 01:20:00,,0825.2,5.02,0.00,30.4,29.3,00.0,39.4,32.0,10.6,0000.0,0013.20,0003.99,0003.30
2021-11-05 01:21:00,,0825.2,4.99,0.00,30.4,29.3,00.0,39.4,32.0,10.7,0000.0,0013.43,0003.93,0003.25
2021-11-05 01:22:00,,0825.2,5.01,0.00,30.4,29.3,00.0,39.4,32.1,10.6,0000.0,0014.19,0003.91,0003.20
2021-11-05 01:23:00,,0825.2,4.99,0.00,30.4,29.4,00.0,39.4,32.0,10.5,0000.0,0015.09,0003.92,0003.15
2021-11-05 01:24:00,,0825.1,5.00,0.00,30.4,29.4,00.0,39.4,32.0,10.5,0000.0,0015.37,0003.88,0003.10
2021-11-05 01:25:00,,0825.2,5.00,0.00,30.4,29.4,00.0,39.4,32.0,10.5,0000.0,0016.80,0003.86,0003.01
2021-11-05 01:26:00,,0825.2,5.00,0.00,30.4,29.4,00.0,39.4,32.1,10.6,0000.0,0016.78,0003.81,0002.94
2021-11-05 01:27:00,,0825.1,5.01,0.00,30.4,29.4,00.0,39.4,32.1,10.5,0000.0,0017.00,0003.75,0002.87
2021-11-05 01:28:00,,0825.2,5.00,0.00,30.4,29.4,00.0,39.4,32.0,10.4,0000.0,0017.23,0003.72,0002.82
2021-11-05 01:29:00,,0825.2,5.00,0.00,30.4,29.4,00.0,39.4,32.0,10.4,0000.0,0016.57,0003.69,0002.76
2021-11-05 01:30:00,,0825.2,5.00,0.00,30.4,29.3,00.0,39.4,32.1,10.4,0000.0,0016.23,0003.68,0002.70
2021-11-05 01:31:00,,0825.2,5.00,0.00,30.4,29.4,00.0,39.4,32.1,10.4,0000.0,0015.36,0003.66,0002.66
2021-11-05 01:32:00,,0825.2,5.01,0.00,30.4,29.4,00.0,39.4,32.0,10.4,0000.0,0014.82,0003.68,0002.63
2021-11-05 01:33:00,,0825.2,5.00,0.00,30.4,29.4,00.0,39.4,32.0,10.4,0000.0,0014.23,0003.65,0002.60
2021-11-05 01:34:00,,0825.2,4.99,0.00,30.4,29.4,00.0,39.4,32.1,10.3,0000.0,0013.24,0003.58,0002.56
2021-11-05 01:35:00,,0825.2,5.00,0.00,30.4,29.4,00.0,39.4,32.1,10.4,0000.0,0012.55,0003.56,0002.54
2021-11-05 01:36:00,,0825.2,5.01,0.00,30.4,29.4,00.0,39.4,32.0,10.5,0000.0,0011.26,0003.55,0002.53
2021-11-05 01:37:00,,0825.2,5.00,0.00,30.4,29.4,00.0,39.4,32.0,10.7,0000.0,0011.21,0003.52,0002.51
2021-11-05 01:38:00,,0825.2,5.00,0.00,30.4,29.4,00.0,39.4,32.1,11.0,0000.0,0011.71,0003.56,0002.50
2021-11-05 01:39:00,,0825.2,5.00,0.00,30.4,29.4,00.0,39.4,32.1,10.7,0000.0,0011.18,0003.53,0002.46
2021-11-05 01:40:00,,0825.2,5.00,0.00,30.4,29.4,00.0,39.4,32.1,10.5,0000.0,0011.10,0003.52,0002.42
2021-11-05 01:41:00,,0825.2,5.00,0.00,30.4,29.4,00.0,39.4,32.0,10.4,0000.0,0011.30,0003.49,0002.39
2021-11-05 01:42:00,,0825.2,5.00,0.00,30.4,29.4,00.0,39.4,32.0,10.4,0000.0,0012.28,0003.48,0002.37
2021-11-05 01:43:00,,0825.2,5.01,0.00,30.4,29.4,00.0,39.4,32.0,10.5,0000.0,0012.31,0003.44,0002.35
2021-11-05 01:44:00,,0825.2,5.00,0.00,30.4,29.4,00.0,39.4,32.0,10.5,0000.0,0012.00,0003.41,0002.34
2021-11-05 01:45:00,,0825.2,5.00,0.00,30.4,29.4,00.0,39.4,32.1,10.5,0000.0,0012.81,0003.43,0002.32
2021-11-05 01:46:00,,0825.2,5.00,0.00,30.4,29.4,00.0,39.4,32.0,10.5,0000.0,0013.36,0003.40,0002.31
2021-11-05 01:47:00,,0825.2,4.99,0.00,30.4,29.4,00.0,39.4,32.0,10.6,0000.0,0012.95,0003.38,0002.29
2021-11-05 01:48:00,,0825.2,5.00,0.00,30.4,29.4,00.0,39.4,32.0,10.5,0000.0,0012.36,0003.39,0002.29
2021-11-05 01:49:00,,0825.2,4.98,0.00,30.3,29.4,00.0,39.4,32.0,10.5,0000.0,0011.77,0003.43,0002.30
2021-11-05 01:50:00,,0825.2,4.99,0.00,30.3,29.4,00.0,39.4,32.0,10.5,0000.0,0012.40,0003.44,0002.30
2021-11-05 01:51:00,,0825.2,5.00,0.00,30.4,29.4,00.0,39.4,32.0,10.5,0000.0,0012.64,0003.43,0002.31
2021-11-05 01:52:00,,0825.2,5.01,0.00,30.4,29.4,00.0,39.4,32.0,10.5,0000.0,0012.36,0003.44,0002.34
2021-11-05 01:53:00,,0825.1,5.00,0.00,30.4,29.4,00.0,39.4,32.1,10.4,0000.0,0012.94,0003.43,0002.38
2021-11-05 01:54:00,,0825.1,4.99,0.00,30.4,29.4,00.0,39.4,32.0,10.4,0000.0,0013.31,0003.46,0002.40
2021-11-05 01:55:00,,0825.1,5.00,0.00,30.4,29.4,00.0,39.4,32.0,10.4,0000.0,0013.50,0003.51,0002.42
2021-11-05 01:56:00,,0825.1,5.00,0.00,30.4,29.4,00.0,39.4,32.1,10.4,0000.0,0012.37,0003.53,0002.45
2021-11-05 01:57:00,,0825.0,4.99,0.00,30.4,29.4,00.0,39.4,32.1,10.4,0000.0,0011.68,0003.54,0002.46
2021-11-05 01:58:00,,0825.0,5.01,0.00,30.4,29.4,00.0,39.4,32.1,10.3,0000.0,0011.97,0003.54,0002.48
2021-11-05 01:59:00,,0825.0,5.01,0.00,30.4,29.4,00.0,39.4,32.1,10.3,0000.0,0012.11,0003.54,0002.50
